Voltar ao catálogo

STARLINK-36539

AtivoComunicaçõesVLEO
NORAD 67446·PAYLOAD·🇺🇸 United States

Lançado Jan 14, 2026 de Cape Canaveral Space Force Station

Loading…

Próximas Passagens (próximas 24 horas)

TLE

AtualizadoSource: CelesTrak SupGP

Época: Sep 14, 2026, 23:14 UTC

1 67446C 26008B   26257.96854167 -.00011645  00000+0 -42145-3 0  2575
2 67446  43.0007 216.7514 0001619 265.8812 127.6808 15.27609288    19

Acompanhe STARLINK-36539 em tempo real com AllMySat

Download on the App Store